カタログに戻る

COSMOS 1823 DEB

運用中LEO
NORAD 39828·DEBRIS·🇷🇺 Russia

打ち上げ Feb 20, 1987 から Plesetsk Cosmodrome

Loading…

次のパス (今後24時間)

TLE

経年Source: Space-Track

元期: Sep 9, 2026, 18:45 UTC

1 39828U 87020FC  26252.78162323  .00001655  00000-0  16035-1 0  9999
2 39828  74.2278 272.8644 0084781 210.9198 148.6830 12.19612364232016

AllMySatでCOSMOS 1823 DEBをリアルタイム追跡

Download on the App Store